EW7966 Weather Reports


Display with metric or nautical units.
time (UTC)temp
F
wind
direction
speed
MPH
gust
MPH
rain 1hr
in
rain 24hr
in
rain mn
in
humidity
%
barometer
mb
20260505235002 34 105 5.0 9.0 0.04 0.27 0.22 95 1009.6
20260505234503 35 109 5.0 8.0 0.03 0.26 0.21 95 1006.6
20260505234005 35 92 4.0 8.0 0.03 0.26 0.21 95 1009.7
20260505233505 35 117 6.0 8.0 0.02 0.25 0.20 95 1009.7
20260505233006 35 109 5.0 9.0 0.02 0.25 0.20 95 1009.7
20260505233002 35 109 5.0 9.0 0.02 0.25 0.20 95 1006.6
20260505232504 35 115 6.0 9.0 0.02 0.25 0.20 95 1009.5
20260505232005 35 105 4.0 10.0 0.01 0.24 0.19 95 1009.4
20260505231504 35 112 6.0 11.0 0.01 0.24 0.19 95 1009.3
20260505231006 35 101 9.0 11.0 0.01 0.24 0.19 95 1009.3
20260505230504 35 105 8.0 10.0 0.00 0.23 0.18 95 1009.3
20260505230007 35 111 7.0 11.0 0.00 0.23 0.18 94 1005.7
20260505225505 35 109 8.0 11.0 0.00 0.23 0.18 94 1009.1
20260505225005 35 128 6.0 10.0 0.00 0.23 0.18 95 1009.0
20260505224504 35 123 7.0 10.0 0.00 0.23 0.18 95 1009.0
20260505223459 36 124 8.0 13.0 0.01 0.23 0.18 94 1008.8
20260505223059 36 115 8.0 13.0 0.01 0.23 0.18 94 1005.0
20260505223006 36 106 9.0 13.0 0.01 0.23 0.18 94 1008.7
20260505223003 36 106 8.0 13.0 0.01 0.23 0.18 94 1005.0
20260505222504 36 105 7.0 12.0 0.01 0.23 0.18 94 1008.7
20260505222005 36 103 6.0 12.0 0.01 0.23 0.18 94 1008.7
20260505221503 36 103 8.0 12.0 0.01 0.23 0.18 94 1005.0
20260505221005 36 116 9.0 11.0 0.01 0.23 0.18 94 1008.9
20260505220505 36 109 8.0 12.0 0.01 0.23 0.18 94 1008.9
20260505220004 36 116 8.0 13.0 0.01 0.23 0.18 94 1005.0
20260505215006 36 121 9.0 12.0 0.01 0.23 0.18 94 1009.1
20260505214504 36 136 7.0 11.0 0.01 0.23 0.18 94 1009.1
20260505214502 36 136 7.0 11.0 0.01 0.23 0.18 94 1005.0
20260505214005 36 129 7.0 11.0 0.00 0.22 0.17 95 1009.1
20260505213005 36 94 9.0 12.0 0.00 0.22 0.17 95 1009.2
20260505213002 36 94 8.0 12.0 0.00 0.22 0.17 95 1005.1
20260505212504 35 103 8.0 11.0 0.00 0.22 0.17 94 1009.3
20260505212005 35 101 9.0 11.0 0.00 0.22 0.17 94 1009.4
20260505211504 36 101 8.0 12.0 0.00 0.22 0.17 95 1009.4
20260505211005 36 103 8.0 12.0 0.00 0.22 0.17 95 1009.5
20260505210505 36 98 7.0 11.0 0.01 0.22 0.17 95 1009.5
20260505210003 36 101 6.0 11.0 0.01 0.22 0.17 95 1005.1
20260505205005 35 104 8.0 13.0 0.01 0.22 0.17 95 1009.8
20260505204504 35 79 8.0 13.0 0.01 0.22 0.17 95 1009.9
20260505204502 35 79 7.0 13.0 0.01 0.22 0.17 95 1005.4
20260505204005 35 92 8.0 13.0 0.01 0.22 0.17 95 1009.9
20260505203504 35 84 7.0 12.0 0.01 0.22 0.17 95 1010.0
20260505203005 35 107 6.0 13.0 0.02 0.22 0.17 95 1010.0
20260505203003 35 107 6.0 13.0 0.02 0.22 0.17 95 1005.5
20260505202005 36 98 6.0 12.0 0.02 0.22 0.17 95 1010.0
20260505201507 35 61 8.0 12.0 0.02 0.22 0.17 95 1005.4
20260505201505 35 61 8.0 12.0 0.02 0.22 0.17 95 1010.1
20260505201005 35 104 6.0 13.0 0.02 0.22 0.17 95 1010.1
20260505200505 35 101 8.0 13.0 0.01 0.21 0.16 94 1010.2
20260505200006 35 104 9.0 13.0 0.01 0.21 0.16 95 1010.2
20260505200003 35 104 8.0 13.0 0.01 0.21 0.16 95 1005.4
20260505195504 35 84 8.0 11.0 0.01 0.21 0.16 94 1010.3
20260505195007 35 71 8.0 12.0 0.01 0.21 0.16 94 1010.3
20260505194504 35 88 8.0 12.0 0.01 0.21 0.16 94 1010.4
20260505194502 35 88 8.0 12.0 0.01 0.21 0.16 94 1005.4
20260505193504 35 54 7.0 10.0 0.02 0.21 0.16 94 1010.4
20260505193006 35 81 6.0 10.0 0.01 0.20 0.15 94 1010.4
20260505193002 35 81 6.0 10.0 0.01 0.20 0.15 94 1005.4
20260505192005 35 79 5.0 10.0 0.01 0.20 0.15 94 1010.6
20260505191504 35 86 6.0 12.0 0.02 0.20 0.15 94 1010.5
20260505191502 35 86 6.0 12.0 0.02 0.20 0.15 94 1005.3
20260505191005 35 82 7.0 12.0 0.02 0.20 0.15 94 1010.6
20260505190006 35 70 6.0 10.0 0.02 0.20 0.15 95 1010.7
20260505185004 35 65 6.0 12.0 0.02 0.20 0.15 95 1010.8
20260505184504 34 113 6.0 10.0 0.02 0.20 0.15 95 1010.7
20260505184005 34 73 6.0 10.0 0.02 0.20 0.15 95 1010.8
20260505183504 34 76 6.0 11.0 0.01 0.19 0.14 95 1010.9
20260505183005 34 68 7.0 10.0 0.01 0.19 0.14 95 1011.0
20260505183003 34 68 7.0 10.0 0.01 0.19 0.14 95 1005.3
20260505182504 34 80 7.0 10.0 0.02 0.19 0.14 95 1011.1
20260505182006 34 98 7.0 10.0 0.02 0.19 0.14 95 1011.2
20260505181505 34 101 5.0 10.0 0.01 0.18 0.13 95 1005.4
20260505181006 34 84 5.0 9.0 0.01 0.18 0.13 96 1011.3
20260505180503 34 71 6.0 11.0 0.01 0.18 0.13 95 1011.3
20260505180006 34 74 7.0 11.0 0.01 0.18 0.13 94 1011.3
20260505180002 34 74 6.0 11.0 0.01 0.18 0.13 94 1005.1
20260505175004 34 72 6.0 11.0 0.01 0.18 0.13 95 1011.4
20260505174505 34 59 6.0 10.0 0.02 0.18 0.13 95 1011.4
20260505174005 34 102 8.0 10.0 0.02 0.18 0.13 95 1011.4
20260505173504 34 98 7.0 10.0 0.02 0.18 0.13 95 1011.4
20260505173005 33 75 7.0 10.0 0.02 0.18 0.13 95 1011.5
20260505173002 33 75 6.0 10.0 0.02 0.18 0.13 95 1005.2
20260505172504 34 94 6.0 9.0 0.01 0.17 0.12 95 1011.7
20260505172005 33 86 7.0 10.0 0.01 0.17 0.12 95 1011.7
20260505171504 33 94 8.0 10.0 0.01 0.17 0.12 95 1011.7
20260505171502 33 94 8.0 10.0 0.01 0.17 0.12 95 1005.3
20260505171005 33 71 7.0 9.0 0.02 0.17 0.12 96 1011.7
20260505170504 33 84 7.0 12.0 0.02 0.17 0.12 95 1011.8
20260505170002 33 72 6.0 12.0 0.02 0.17 0.12 95 1005.3
20260505165509 33 74 7.0 10.0 0.02 0.17 0.12 96 1011.8
20260505165026 33 80 8.0 10.0 0.02 0.17 0.12 96 1011.8
20260505164602 33 55 5.0 10.0 0.01 0.16 0.11 96 1005.2
20260505164005 33 63 6.0 10.0 0.01 0.16 0.11 96 1011.9
20260505163510 33 55 6.0 10.0 0.02 0.16 0.11 96 1012.0
20260505163007 33 68 5.0 8.0 0.02 0.16 0.11 96 1012.1
20260505163002 33 68 4.0 8.0 0.02 0.16 0.11 96 1005.4
20260505162019 33 48 6.0 10.0 0.02 0.16 0.11 96 1012.0
20260505161505 32 41 6.0 9.0 0.02 0.16 0.11 96 1011.9
20260505161503 32 41 5.0 9.0 0.02 0.16 0.11 96 1005.1
20260505161005 32 44 5.0 10.0 0.01 0.15 0.10 96 1011.9
20260505160504 32 35 5.0 9.0 0.01 0.15 0.10 96 1011.9
20260505153007 32 48 6.0 11.0 0.01 0.14 0.09 96 1004.9
20260505152505 32 53 7.0 11.0 0.01 0.14 0.09 96 1011.9
20260505152005 32 46 8.0 12.0 0.01 0.14 0.09 96 1011.9
20260505151505 32 19 7.0 12.0 0.01 0.14 0.09 96 1011.9
20260505151502 32 19 6.0 12.0 0.01 0.14 0.09 96 1004.7
20260505151005 32 30 5.0 11.0 0.01 0.14 0.09 96 1011.9
20260505150504 32 37 8.0 11.0 0.01 0.14 0.09 96 1011.7
20260505140505 32 24 13.0 18.0 0.01 0.13 0.08 95 1011.6
20260505125005 38 69 6.0 10.0 0.04 0.12 0.07 94 1009.9
20260505124505 38 36 5.0 9.0 0.04 0.11 0.06 94 1001.4
20260505124005 38 80 5.0 11.0 0.04 0.11 0.06 94 1009.8
20260505123504 38 108 7.0 11.0 0.04 0.11 0.06 94 1009.7
20260505123006 38 110 7.0 12.0 0.04 0.11 0.06 94 1001.3
20260505122504 38 105 9.0 12.0 0.04 0.11 0.06 94 1009.7
20260505122005 38 106 7.0 10.0 0.04 0.11 0.06 94 1009.8
20260505121505 38 117 6.0 11.0 0.03 0.10 0.05 94 1009.9
20260505121502 38 117 6.0 11.0 0.03 0.10 0.05 94 1001.5
20260505121005 38 119 9.0 12.0 0.03 0.10 0.05 94 1009.8
20260505120505 38 139 9.0 12.0 0.03 0.10 0.05 94 1009.9
20260505120007 38 125 7.0 10.0 0.02 0.09 0.04 94 1009.8
20260505115503 38 117 7.0 12.0 0.01 0.08 0.03 94 1009.7
20260505115005 39 119 7.0 11.0 0.01 0.08 0.03 94 1009.6
20260505114503 38 105 7.0 11.0 0.00 0.07 0.02 94 1001.3
20260505114005 39 111 7.0 12.0 0.00 0.07 0.02 94 1009.7
20260505113504 39 130 8.0 12.0 0.00 0.07 0.02 93 1009.7
20260505113005 39 117 8.0 10.0 0.00 0.07 0.02 93 1009.7
20260505113003 39 117 7.0 10.0 0.00 0.07 0.02 93 1001.2
20260505112005 39 99 6.0 9.0 0.00 0.07 0.02 93 1009.8
20260505111507 39 98 5.0 9.0 0.00 0.07 0.02 93 1001.4
20260505111504 39 98 6.0 9.0 0.00 0.07 0.02 93 1009.8
20260505111004 39 106 5.0 10.0 0.00 0.07 0.02 93 1009.8
20260505110504 39 88 6.0 9.0 0.00 0.07 0.02 92 1009.7
20260505101507 40 108 1.0 3.0 0.00 0.07 0.02 93 1000.9
20260505101005 40 108 2.0 6.0 0.00 0.07 0.02 93 1009.6
20260505100504 39 96 2.0 6.0 0.00 0.07 0.02 93 1008.9
20260505100007 39 84 3.0 5.0 0.00 0.07 0.02 91 999.8
20260505095005 40 127 1.0 3.0 0.00 0.07 0.02 91 1008.9
20260505094505 40 127 2.0 3.0 0.00 0.07 0.02 91 1009.1
20260505094005 40 127 2.0 3.0 0.00 0.07 0.02 91 1008.9
20260505093505 40 127 1.0 2.0 0.01 0.07 0.02 90 1009.1
20260505093005 40 127 2.0 2.0 0.01 0.07 0.02 89 1009.1
20260505093002 40 127 1.0 2.0 0.01 0.07 0.02 89 1000.3
20260505092504 41 127 1.0 4.0 0.01 0.07 0.02 89 1009.2
20260505091505 41 127 2.0 4.0 0.01 0.07 0.02 90 1009.2
20260505091502 41 127 1.0 4.0 0.01 0.07 0.02 90 1000.3
20260505091004 41 127 3.0 4.0 0.01 0.07 0.02 90 1009.3
20260505090505 41 127 1.0 4.0 0.01 0.07 0.02 89 1009.3
20260505090007 42 127 3.0 5.0 0.01 0.07 0.02 89 1009.3
20260505090003 42 127 2.0 5.0 0.01 0.07 0.02 89 1000.3
20260505085504 42 127 3.0 4.0 0.01 0.07 0.02 89 1009.3
20260505084504 42 127 1.0 5.0 0.01 0.07 0.02 90 1009.4
20260505084501 42 127 1.0 5.0 0.01 0.07 0.02 90 1000.4
20260505084005 42 127 3.0 5.0 0.01 0.07 0.02 90 1009.3
20260505083504 42 127 3.0 4.0 0.00 0.06 0.01 90 1009.4
20260505083005 42 127 0.0 2.0 0.00 0.06 0.01 90 1009.8
20260505082503 42 127 0.0 3.0 0.00 0.06 0.01 90 1009.9
20260505082004 42 127 1.0 4.0 0.00 0.06 0.01 90 1009.9
20260505081502 42 82 1.0 3.0 0.00 0.06 0.01 91 1000.6
20260505081005 42 82 1.0 3.0 0.00 0.06 0.01 91 1009.8
20260505080504 42 82 0.0 3.0 0.00 0.06 0.01 91 1010.0
20260505080005 42 82 2.0 6.0 0.00 0.06 0.01 90 1009.8
20260505080002 42 82 1.0 6.0 0.00 0.06 0.01 90 1000.8
20260505075504 42 82 3.0 6.0 0.00 0.06 0.01 91 1009.8
20260505075006 42 82 2.0 7.0 0.00 0.06 0.01 90 1009.8
20260505074503 43 123 2.0 7.0 0.00 0.06 0.01 91 1000.9
20260505074004 43 130 4.0 7.0 0.00 0.06 0.01 91 1009.8
20260505073505 43 185 4.0 7.0 0.00 0.06 0.01 91 1010.2
20260505073007 43 168 3.0 6.0 0.00 0.06 0.01 91 1001.3
20260505073005 43 168 4.0 6.0 0.00 0.06 0.01 91 1010.3
20260505072503 43 11 2.0 3.0 0.00 0.06 0.01 91 1010.5
20260505072000 43 11 1.0 3.0 0.00 0.06 0.01 91 1010.5
20260505071501 43 11 1.0 3.0 0.00 0.06 0.01 90 1001.6
20260505071458 43 11 1.0 3.0 0.00 0.06 0.01 90 1010.6
20260505071005 43 11 1.0 3.0 0.00 0.06 0.01 90 1010.6
20260505070504 43 11 1.0 3.0 0.01 0.06 0.01 91 1010.5
20260505070006 43 11 0.0 2.0 0.01 0.06 0.01 90 1010.6
20260505070003 43 11 0.0 2.0 0.01 0.06 0.01 90 1001.6
20260505065504 43 11 0.0 1.0 0.01 0.06 0.01 91 1010.6
20260505065005 43 11 0.0 1.0 0.01 0.06 0.01 91 1010.7
20260505064504 43 11 0.0 2.0 0.01 0.06 0.01 90 1010.6
20260505064502 43 11 0.0 2.0 0.01 0.06 0.01 90 1001.7
20260505064004 43 11 1.0 2.0 0.02 0.06 0.01 90 1010.7
20260505063504 43 11 0.0 4.0 0.02 0.06 0.01 90 1010.6
20260505063002 43 11 2.0 4.0 0.02 0.06 0.01 90 1001.5
20260505062004 43 11 2.0 4.0 0.02 0.06 0.01 89 1010.5
20260505061509 43 11 2.0 5.0 0.02 0.06 0.01 89 1001.6
20260505061505 43 11 2.0 5.0 0.02 0.06 0.01 89 1010.6
20260505061004 43 11 3.0 5.0 0.03 0.06 0.01 90 1010.7
20260505060504 43 11 1.0 4.0 0.02 0.05 0.00 91 1010.7
20260505060010 43 11 1.0 6.0 0.02 0.05 0.00 91 1010.9
20260505060004 43 11 0.0 6.0 0.02 0.05 0.00 91 1001.9
20260505055505 43 11 3.0 6.0 0.02 0.05 0.05 91 1011.2
20260505055005 44 341 2.0 3.0 0.02 0.05 0.05 92 1011.0
20260505054505 44 341 1.0 3.0 0.02 0.05 0.05 92 1011.0
20260505054503 44 341 1.0 3.0 0.02 0.05 0.05 92 1002.0
20260505054006 44 341 0.0 5.0 0.02 0.04 0.04 92 1011.0
20260505053505 44 341 1.0 5.0 0.02 0.04 0.04 91 1011.0
20260505053006 44 321 1.0 3.0 0.03 0.04 0.04 91 1010.9
20260505053002 44 321 1.0 3.0 0.03 0.04 0.04 91 1001.9
20260505052505 44 321 0.0 5.0 0.03 0.04 0.04 90 1011.0
20260505052005 44 321 1.0 5.0 0.04 0.04 0.04 90 1011.0
20260505051507 44 321 0.0 4.0 0.04 0.04 0.04 90 1002.0
20260505051504 44 321 1.0 4.0 0.04 0.04 0.04 90 1011.0
20260505051006 44 321 1.0 8.0 0.03 0.03 0.03 90 1011.0
20260505050504 44 342 4.0 9.0 0.03 0.03 0.03 89 1010.8
20260505050107 44 315 4.0 9.0 0.03 0.03 0.03 89 1001.7
20260505041508 48 285 5.0 8.0 0.00 0.00 0.00 68 1001.4
20260505041005 48 301 5.0 8.0 0.00 0.00 0.00 68 1010.5
20260505040505 48 277 3.0 7.0 0.00 0.00 0.00 69 1010.4
20260505040006 48 291 3.0 4.0 0.00 0.00 0.00 71 1010.4
20260505040004 48 291 3.0 4.0 0.00 0.00 0.00 71 1001.1
20260505035504 48 9 1.0 2.0 0.00 0.00 0.00 70 1010.3
20260505035005 48 9 1.0 2.0 0.00 0.00 0.00 72 1010.1
20260505034504 48 9 0.0 1.0 0.00 0.00 0.00 73 1010.2
20260505034502 48 9 0.0 1.0 0.00 0.00 0.00 73 1000.9
20260505034007 48 9 0.0 2.0 0.00 0.00 0.00 71 1010.3
20260505033005 48 9 0.0 0.0 0.00 0.00 0.00 72 1010.1
20260505032459 48 9 0.0 1.0 0.00 0.00 0.00 70 1010.1
20260505031505 48 9 0.0 2.0 0.00 0.00 0.00 68 1000.8
20260505031005 48 9 1.0 2.0 0.00 0.00 0.00 66 1010.0
20260505030504 48 9 0.0 0.0 0.00 0.00 0.00 67 1010.0
20260505030006 48 9 0.0 0.0 0.00 0.00 0.00 66 1010.0
20260505030003 48 9 0.0 0.0 0.00 0.00 0.00 66 1000.7
20260505025504 48 9 0.0 0.0 0.00 0.00 0.00 66 1010.0
20260505024505 48 9 0.0 0.0 0.00 0.00 0.00 66 1009.7
20260505024502 48 9 0.0 0.0 0.00 0.00 0.00 66 1000.4
20260505024004 49 9 0.0 3.0 0.00 0.00 0.00 66 1009.6
20260505023505 49 9 0.0 3.0 0.00 0.00 0.00 67 1009.6
20260505023008 49 9 0.0 1.0 0.00 0.00 0.00 67 1000.3
20260505023005 49 9 0.0 1.0 0.00 0.00 0.00 67 1009.5
20260505022504 49 9 0.0 2.0 0.00 0.00 0.00 67 1009.7
20260505022012 50 9 0.0 14.0 0.00 0.00 0.00 66 1009.5
20260505021504 50 5 8.0 14.0 0.00 0.00 0.00 62 1009.5
20260505021009 50 49 3.0 5.0 0.00 0.00 0.00 62 1009.6
20260505020501 50 29 1.0 2.0 0.00 0.00 0.00 61 1009.7
20260505020014 50 30 0.0 3.0 0.00 0.00 0.00 59 1009.5
20260505020003 50 30 0.0 3.0 0.00 0.00 0.00 59 1000.2
20260505015459 50 30 0.0 3.0 0.00 0.00 0.00 61 1009.5
20260505015010 50 30 2.0 4.0 0.00 0.00 0.00 60 1009.6
20260505014504 50 43 1.0 5.0 0.00 0.00 0.00 62 1009.4
20260505014013 50 355 0.0 10.0 0.00 0.00 0.00 63 1009.5
20260505013504 50 20 5.0 14.0 0.00 0.00 0.00 62 1009.5
20260505013002 50 19 8.0 16.0 0.00 0.00 0.00 61 1000.2
20260505012505 51 31 10.0 22.0 0.00 0.00 0.00 59 1009.5
20260505012006 53 355 13.0 22.0 0.00 0.00 0.00 54 1009.2
20260505011506 53 9 8.0 16.0 0.00 0.00 0.00 49 999.8
20260505011013 54 21 8.0 17.0 0.00 0.00 0.00 47 1008.8
20260505010504 54 42 11.0 20.0 0.00 0.00 0.00 46 1008.6
20260505010012 56 34 10.0 17.0 0.00 0.00 0.00 42 999.0
20260505005504 56 11 9.0 12.0 0.00 0.00 0.00 39 1008.4
20260505005012 56 21 6.0 13.0 0.00 0.00 0.00 39 1008.3
20260505004503 56 27 5.0 14.0 0.00 0.00 0.00 38 998.8
20260505004010 56 20 9.0 15.0 0.00 0.00 0.00 38 1008.4
20260505003505 57 350 9.0 15.0 0.00 0.00 0.00 38 1008.3
20260505003010 57 355 3.0 10.0 0.00 0.00 0.00 38 1008.5
20260505003008 57 355 3.0 10.0 0.00 0.00 0.00 38 999.1
20260505002504 57 342 3.0 14.0 0.00 0.00 0.00 37 1008.4
20260505002010 57 17 7.0 14.0 0.00 0.00 0.00 37 1008.3
20260505001505 57 355 4.0 15.0 0.00 0.00 0.00 37 1008.2
20260505001009 58 58 9.0 22.0 0.00 0.00 0.00 36 1008.1
20260505000504 58 278 4.0 22.0 0.00 0.00 0.00 36 1008.2
20260505000004 58 64 5.0 16.0 0.00 0.00 0.00 35 998.6
20260504235504 58 28 6.0 14.0 0.00 0.00 0.00 35 1008.3